• In Deutschland
  • Länderverzeichnis
  • Für 7 Tage
  • Wassertemperatur
  • Satellitenkarten
  • Wetterkarte
  • Widgets
  • user-avatar
    Anmelden

    Stündliche Wetter Rosenheim

    Heute, 26 September, Mittwoch

    Zeit Temperatur Niederschläge Wind Luftdruck Luftfeuchtigkeit
    00:00 +5°C° 0 mm 1 m/S 736 mmHg 80%
    01:00 +4°C° 0 mm 2 m/S 736 mmHg 76%
    02:00 +3°C° 0 mm 2 m/S 736 mmHg 73%
    03:00 +3°C° 0 mm 2 m/S 736 mmHg 70%
    04:00 +3°C° 0 mm 2 m/S 735 mmHg 67%
    05:00 +4°C° 0 mm 2 m/S 735 mmHg 63%
    06:00 +4°C° 0 mm 2 m/S 735 mmHg 59%
    07:00 +5°C° 0 mm 2 m/S 735 mmHg 54%
    08:00 +9°C° 0 mm 1 m/S 735 mmHg 49%
    09:00 +13°C° 0 mm 1 m/S 735 mmHg 43%
    10:00 +16°C° 0 mm 1 m/S 735 mmHg 38%
    11:00 +18°C° 0 mm 1 m/S 735 mmHg 37%
    12:00 +20°C° 0 mm 1 m/S 734 mmHg 36%
    13:00 +21°C° 0 mm 1 m/S 734 mmHg 35%
    14:00 +20°C° 0 mm 1 m/S 734 mmHg 40%
    15:00 +20°C° 0 mm 1 m/S 734 mmHg 45%
    16:00 +20°C° 0 mm 1 m/S 733 mmHg 51%
    17:00 +16°C° 0 mm 1 m/S 733 mmHg 59%
    18:00 +13°C° 0 mm 1 m/S 733 mmHg 67%
    19:00 +9°C° 0 mm 0 m/S 734 mmHg 75%
    20:00 +10°C° 0 mm 1 m/S 734 mmHg 74%
    21:00 +10°C° 0 mm 1 m/S 734 mmHg 72%
    22:00 +10°C° 0 mm 1 m/S 734 mmHg 71%
    23:00 +10°C° 0 mm 1 m/S 734 mmHg 69%

    Morgen, 27 September, Donnerstag

    Zeit Temperatur Niederschläge Wind Luftdruck Luftfeuchtigkeit
    00:00 +10°C° 0 mm 1 m/S 734 mmHg 67%
    01:00 +9°C° 0 mm 1 m/S 734 mmHg 65%
    02:00 +9°C° 0 mm 1 m/S 734 mmHg 63%
    03:00 +9°C° 0 mm 1 m/S 734 mmHg 62%
    04:00 +9°C° 0 mm 1 m/S 733 mmHg 60%
    05:00 +9°C° 0 mm 1 m/S 733 mmHg 59%
    06:00 +10°C° 0 mm 1 m/S 733 mmHg 59%
    07:00 +10°C° 0 mm 1 m/S 733 mmHg 58%
    08:00 +13°C° 0 mm 1 m/S 733 mmHg 52%
    09:00 +16°C° 0 mm 1 m/S 733 mmHg 47%
    10:00 +18°C° 0 mm 0 m/S 733 mmHg 42%
    11:00 +21°C° 0 mm 1 m/S 732 mmHg 41%
    12:00 +22°C° 0 mm 1 m/S 732 mmHg 40%
    13:00 +23°C° 0 mm 1 m/S 732 mmHg 40%
    14:00 +23°C° 0 mm 1 m/S 731 mmHg 45%
    15:00 +22°C° 0 mm 1 m/S 730 mmHg 51%
    16:00 +22°C° 0 mm 1 m/S 730 mmHg 56%
    17:00 +19°C° 0 mm 1 m/S 730 mmHg 64%
    18:00 +16°C° 0 mm 1 m/S 729 mmHg 72%
    19:00 +13°C° 0 mm 1 m/S 729 mmHg 79%
    20:00 +13°C° 0 mm 1 m/S 729 mmHg 78%
    21:00 +13°C° 0 mm 1 m/S 729 mmHg 77%
    22:00 +13°C° 0 mm 1 m/S 729 mmHg 77%
    23:00 +12°C° 0 mm 1 m/S 728 mmHg 76%

    übermorgen, 28 September, Freitag

    Zeit Temperatur Niederschläge Wind Luftdruck Luftfeuchtigkeit
    00:00 +12°C° 0 mm 1 m/S 728 mmHg 76%
    01:00 +12°C° 0 mm 1 m/S 728 mmHg 76%
    02:00 +12°C° 0 mm 1 m/S 727 mmHg 76%
    03:00 +11°C° 0 mm 1 m/S 727 mmHg 76%
    04:00 +10°C° 0 mm 2 m/S 726 mmHg 76%
    05:00 +10°C° 0 mm 2 m/S 726 mmHg 76%
    06:00 +10°C° 0 mm 2 m/S 726 mmHg 75%
    07:00 +12°C° 0 mm 1 m/S 726 mmHg 75%
    08:00 +14°C° 0 mm 1 m/S 726 mmHg 68%
    09:00 +18°C° 0 mm 1 m/S 726 mmHg 61%
    10:00 +20°C° 0 mm 1 m/S 726 mmHg 53%
    11:00 +20°C° 0 mm 2 m/S 726 mmHg 53%
    12:00 +21°C° 0 mm 2 m/S 725 mmHg 52%
    13:00 +23°C° 0 mm 2 m/S 725 mmHg 51%
    14:00 +21°C° 0 mm 2 m/S 725 mmHg 55%
    15:00 +21°C° 0 mm 2 m/S 724 mmHg 59%
    16:00 +20°C° 0 mm 2 m/S 724 mmHg 63%
    17:00 +18°C° 0 mm 2 m/S 724 mmHg 71%
    18:00 +16°C° 0 mm 1 m/S 724 mmHg 80%
    19:00 +14°C° 0 mm 1 m/S 725 mmHg 88%
    20:00 +13°C° 0 mm 1 m/S 725 mmHg 88%
    21:00 +13°C° 0 mm 1 m/S 726 mmHg 87%
    22:00 +13°C° 0 mm 1 m/S 726 mmHg 87%
    23:00 +13°C° 0.1 mm 1 m/S 726 mmHg 89%

    29 September, Samstag

    Zeit Temperatur Niederschläge Wind Luftdruck Luftfeuchtigkeit
    00:00 +12°C° 0.1 mm 1 m/S 726 mmHg 91%
    01:00 +12°C° 0.1 mm 1 m/S 726 mmHg 92%
    02:00 +11°C° 0.1 mm 1 m/S 726 mmHg 92%
    03:00 +11°C° 0.1 mm 1 m/S 727 mmHg 92%
    04:00 +11°C° 0.1 mm 1 m/S 727 mmHg 92%
    05:00 +10°C° 0.2 mm 1 m/S 727 mmHg 92%
    06:00 +10°C° 0.2 mm 1 m/S 727 mmHg 92%
    07:00 +10°C° 0.2 mm 1 m/S 728 mmHg 92%
    08:00 +9°C° 0.1 mm 2 m/S 728 mmHg 89%
    09:00 +10°C° 0.1 mm 2 m/S 728 mmHg 87%
    10:00 +12°C° 0.1 mm 2 m/S 728 mmHg 84%
    11:00 +12°C° 0 mm 2 m/S 728 mmHg 80%
    12:00 +13°C° 0 mm 2 m/S 728 mmHg 77%
    13:00 +14°C° 0 mm 2 m/S 728 mmHg 73%
    14:00 +14°C° 0 mm 2 m/S 728 mmHg 72%
    15:00 +14°C° 0 mm 2 m/S 728 mmHg 72%
    16:00 +14°C° 0 mm 2 m/S 727 mmHg 71%
    17:00 +12°C° 0 mm 2 m/S 728 mmHg 76%
    18:00 +10°C° 0 mm 2 m/S 728 mmHg 81%
    19:00 +8°C° 0 mm 2 m/S 728 mmHg 85%
    20:00 +8°C° 0 mm 2 m/S 728 mmHg 85%
    21:00 +7°C° 0 mm 2 m/S 728 mmHg 86%
    22:00 +7°C° 0 mm 2 m/S 728 mmHg 86%
    23:00 +6°C° 0 mm 2 m/S 728 mmHg 86%

    30 September, Sonntag

    Zeit Temperatur Niederschläge Wind Luftdruck Luftfeuchtigkeit
    00:00 +6°C° 0 mm 2 m/S 728 mmHg 87%
    01:00 +5°C° 0 mm 2 m/S 727 mmHg 88%
    02:00 +5°C° 0 mm 2 m/S 727 mmHg 88%
    03:00 +5°C° 0 mm 2 m/S 726 mmHg 88%
    04:00 +5°C° 0 mm 2 m/S 726 mmHg 88%
    05:00 +5°C° 0 mm 2 m/S 726 mmHg 86%
    06:00 +5°C° 0 mm 2 m/S 726 mmHg 85%
    07:00 +6°C° 0 mm 2 m/S 726 mmHg 84%
    08:00 +9°C° 0 mm 2 m/S 725 mmHg 74%
    09:00 +13°C° 0 mm 1 m/S 725 mmHg 65%
    10:00 +16°C° 0 mm 1 m/S 725 mmHg 55%
    11:00 +17°C° 0 mm 2 m/S 725 mmHg 53%
    12:00 +18°C° 0 mm 2 m/S 724 mmHg 51%
    13:00 +19°C° 0 mm 2 m/S 724 mmHg 49%
    14:00 +19°C° 0 mm 2 m/S 723 mmHg 53%
    15:00 +19°C° 0 mm 2 m/S 723 mmHg 57%
    16:00 +19°C° 0 mm 1 m/S 723 mmHg 61%
    17:00 +16°C° 0 mm 1 m/S 723 mmHg 69%
    18:00 +14°C° 0 mm 1 m/S 723 mmHg 78%
    19:00 +11°C° 0 mm 1 m/S 723 mmHg 86%
    20:00 +11°C° 0 mm 1 m/S 722 mmHg 86%
    21:00 +11°C° 0 mm 1 m/S 722 mmHg 85%
    22:00 +11°C° 0 mm 1 m/S 722 mmHg 85%
    23:00 +11°C° 0 mm 1 m/S 722 mmHg 84%

    1 Oktober, Montag

    Zeit Temperatur Niederschläge Wind Luftdruck Luftfeuchtigkeit
    00:00 +11°C° 0 mm 1 m/S 721 mmHg 84%
    01:00 +11°C° 0 mm 1 m/S 721 mmHg 83%
    02:00 +11°C° 0 mm 1 m/S 721 mmHg 82%
    03:00 +11°C° 0 mm 1 m/S 720 mmHg 81%
    04:00 +11°C° 0 mm 1 m/S 720 mmHg 79%
    05:00 +11°C° 0.1 mm 1 m/S 720 mmHg 80%
    06:00 +12°C° 0.1 mm 1 m/S 720 mmHg 82%
    07:00 +12°C° 0.1 mm 1 m/S 720 mmHg 83%
    08:00 +12°C° 0.7 mm 2 m/S 720 mmHg 86%
    09:00 +12°C° 0.7 mm 2 m/S 720 mmHg 89%
    10:00 +12°C° 0.7 mm 2 m/S 720 mmHg 92%
    11:00 +13°C° 0.6 mm 2 m/S 720 mmHg 90%
    12:00 +13°C° 0.6 mm 2 m/S 720 mmHg 89%
    13:00 +13°C° 0.6 mm 2 m/S 720 mmHg 88%
    14:00 +13°C° 0.6 mm 2 m/S 720 mmHg 88%
    15:00 +13°C° 0.6 mm 2 m/S 720 mmHg 88%
    16:00 +13°C° 0.6 mm 2 m/S 720 mmHg 89%
    17:00 +12°C° 0.3 mm 2 m/S 721 mmHg 88%
    18:00 +10°C° 0.3 mm 2 m/S 721 mmHg 88%
    19:00 +11°C° 0.3 mm 1 m/S 722 mmHg 88%
    20:00 +10°C° 0.2 mm 1 m/S 722 mmHg 88%
    21:00 +10°C° 0.2 mm 1 m/S 722 mmHg 88%
    22:00 +10°C° 0.2 mm 1 m/S 723 mmHg 88%
    23:00 +9°C° 0.2 mm 1 m/S 723 mmHg 89%
    Mehr zeigen